Location: Gradaro
(45.0833°N, 10.8833°E)
Time: 09:38:42
(UTC+00:00)

FENGYUN 1C DEB - Pass Details

Date: 27 June 2021
Orbit: 803 x 830 km, 98.8° (Epoch: 28 July)

Event Time Altitude Azimuth Distance (km) Brightness Sun altitude
Exits shadow 20:33:22 14° 120° (ESE) 2,125 ? -11.8°
Maximum altitude 20:37:11 32° 65° (ENE) 1,383 ? -12.3°
Drops below altitude 10° 20:41:50 10° 4° (N) 2,420 ? -12.8°
Sets 20:44:25 0° 355° (N) 3,361 ? -13.0°
